Regional Weather Roundup
Issued by NWS

Home | Current Version | Previous Version | Graphics & Text | Print | Product List | Glossary On
Versions: 1 2 3 4 5 6 7 8 9 10 11 12 13 14 15 16 17 18 19 20 21 22 23 24 25 26 27 28 29 30 31 32 33 34 35 36 37 38 39 40 41 42 43 44 45 46 47 48 49 50
000
ASUS43 KBIS 221910
RWRND

NORTH DAKOTA REGIONAL WEATHER ROUNDUP
NATIONAL WEATHER SERVICE BISMARCK ND
200 PM CDT TUE JUL 22 2014

NOTE: "FAIR" INDICATES FEW OR NO CLOUDS BELOW 12,000 FEET WITH NO
SIGNIFICANT WEATHER AND/OR OBSTRUCTIONS TO VISIBILITY.


NDZ001>003-009>011-017-222000-
NORTHWEST NORTH DAKOTA

CITY           SKY/WX    TMP DP  RH WIND       PRES   REMARKS
WILLISTON      CLOUDY    81  55  40 VRB3      30.17F
MINOT          MOSUNNY   76  59  55 VRB5      30.19S
MINOT AFB      PTSUNNY   75  63  67 N6        30.18S
$$

NDZ018>021-031>035-040>046-222000-
SOUTHWEST NORTH DAKOTA

CITY           SKY/WX    TMP DP  RH WIND       PRES   REMARKS
BISMARCK       MOSUNNY   78  62  57 CALM      30.20S
DICKINSON      MOSUNNY   76  65  68 E10       30.20F
GARRISON         N/A     74  63  68 S6        30.21R
HETTINGER ARPT MOSUNNY   80  59  48 MISG      30.22F
$$

NDZ004>008-012>016-024-026-027-054-222000-
NORTHEAST NORTH DAKOTA

CITY           SKY/WX    TMP DP  RH WIND       PRES   REMARKS
GRAND FORKS    SUNNY     75  57  53 N10       30.15R
GRND FRKS AFB  SUNNY     74  59  58 NW9       30.17R
DEVILS LAKE    MOSUNNY   73  57  56 N5        30.17S
$$

NDZ022-023-025-028>030-036>039-047>053-222000-
SOUTHEAST NORTH DAKOTA

CITY           SKY/WX    TMP DP  RH WIND       PRES   REMARKS
FARGO          SUNNY     78  58  49 N17G25    30.14R
JAMESTOWN      MOSUNNY   77  60  55 NW10      30.18R
$$



USA.gov is the U.S. government's official web portal to all federal, state and local government web resources and services.